Weather History for Juneau, AK

Change the Weather History Date:

Saturday, June 29, 2013

  Actual Average Record
Temperature  
Mean Temperature 61 °F 56 °F  
Max Temperature 69 °F 63 °F 83 °F (1985)
Min Temperature 53 °F 48 °F 36 °F (1965)
Degree Days  
Heating Degree Days 4 9  
Month to date heating degree days 213 305  
Since 1 June heating degree days 213 305  
Since 1 July heating degree days 8749 8341  
Cooling Degree Days 0 0  
Month to date cooling degree days 7 0  
Year to date cooling degree days 7 0  
Since 1 June cooling degree days 7 0  
Growing Degree Days 11 (Base 50)    
Moisture  
Dew Point 51 °F    
Average Humidity 75    
Maximum Humidity 93    
Minimum Humidity 56    
Precipitation  
Precipitation 0.01 in 0.12 in 1.91 in (1953)
Month to date precipitation 3.19 3.12  
Year to date precipitation 31.56 22.72  
Sea Level Pressure  
Sea Level Pressure 30.04 in    
Wind  
Wind Speed 4 mph (SW)    
Max Wind Speed 14 mph    
Max Gust Speed 15 mph    
Visibility 10 miles    
Events Rain    
T = Trace of Precipitation, MM = Missing Value Source: NWS Daily Summary

Daily Weather History Graph

Daily Weather History Graph

Search for Another Location

Airport:

Trip Planner

Search our weather history database for the weather conditions in past years. The results will help you decide how hot, cold, wet, or windy it might be!

Date:

Astronomy

Jun. 29, 2013 Rise Set
Actual Time 3:55 AM AKDT 10:07 PM AKDT
Civil Twilight 2:38 AM AKDT 11:24 PM AKDT
Nautical Twilight Sun does not rise Sun does not rise
Astronomical Twilight Sun does not rise Sun does not rise
Moon No Moon Rise 1:07 PM AKDT (6/29)
Length of Visible Light 20h 45m
Length of Day
18h 11m
Waning Gibbous, 54% of the Moon is Illuminated
Jun 29
Waning Gibbous
Jun 29
Last Quarter
Jul 7
New
Jul 15
First Quarter
Jul 22
Full

Hourly Weather History & Observations

Time (AKDT) Temp. Dew Point Humidity Pressure Visibility Wind Dir Wind Speed Gust Speed Precip Events Conditions
12:53 AM 54.0 °F 48.0 °F 80% 30.03 in 10.0 mi WSW 5.8 mph - N/A   Mostly Cloudy
1:53 AM 54.0 °F 46.9 °F 77% 30.03 in 10.0 mi Calm Calm - N/A   Mostly Cloudy
2:53 AM 55.0 °F 48.9 °F 80% 30.04 in 10.0 mi Calm Calm - N/A   Overcast
3:53 AM 53.1 °F 48.9 °F 86% 30.03 in 10.0 mi Calm Calm - N/A   Overcast
4:53 AM 54.0 °F 48.9 °F 83% 30.02 in 10.0 mi Calm Calm - N/A   Overcast
5:53 AM 53.1 °F 48.0 °F 83% 30.02 in 10.0 mi Calm Calm - 0.00 in   Overcast
6:53 AM 55.0 °F 48.0 °F 77% 30.03 in 10.0 mi Calm Calm - 0.00 in Rain Light Rain
7:53 AM 54.0 °F 51.1 °F 90% 30.04 in 10.0 mi ENE 3.5 mph - 0.00 in Rain Light Rain
8:53 AM 55.0 °F 52.0 °F 89% 30.04 in 10.0 mi East 4.6 mph - 0.01 in Rain Light Rain
9:53 AM 57.0 °F 53.1 °F 87% 30.04 in 10.0 mi Calm Calm - 0.00 in Rain Light Rain
10:53 AM 61.0 °F 53.1 °F 75% 30.04 in 10.0 mi Calm Calm - 0.00 in   Overcast
11:53 AM 57.9 °F 50.0 °F 75% 30.06 in 10.0 mi East 10.4 mph - N/A   Overcast
12:53 PM 62.1 °F 51.1 °F 67% 30.06 in 10.0 mi East 4.6 mph - 0.00 in Rain Light Rain
1:53 PM 64.0 °F 51.1 °F 63% 30.06 in 10.0 mi Variable 4.6 mph - 0.00 in   Overcast
2:53 PM 66.9 °F 50.0 °F 54% 30.05 in 10.0 mi West 5.8 mph - N/A   Mostly Cloudy
3:53 PM 64.9 °F 53.1 °F 65% 30.04 in 10.0 mi WSW 10.4 mph - N/A   Mostly Cloudy
4:53 PM 66.9 °F 51.1 °F 57% 30.03 in 10.0 mi SW 10.4 mph - N/A   Scattered Clouds
5:53 PM 64.9 °F 52.0 °F 63% 30.02 in 10.0 mi WSW 10.4 mph - N/A   Mostly Cloudy
6:53 PM 66.0 °F 51.1 °F 59% 30.02 in 10.0 mi WSW 9.2 mph - N/A   Scattered Clouds
7:53 PM 64.0 °F 51.1 °F 63% 30.02 in 10.0 mi WSW 8.1 mph - N/A   Mostly Cloudy
8:53 PM 63.0 °F 51.1 °F 65% 30.02 in 10.0 mi WSW 4.6 mph - N/A   Mostly Cloudy
9:53 PM 61.0 °F 51.1 °F 70% 30.04 in 10.0 mi Calm Calm - N/A   Mostly Cloudy
10:53 PM 60.1 °F 48.9 °F 67% 30.05 in 10.0 mi Calm Calm - N/A   Mostly Cloudy
11:53 PM 57.0 °F 51.1 °F 81% 30.06 in 10.0 mi ENE 9.2 mph - N/A   Overcast